VR2OT-10 Weather Reports


time (UTC)temp
C
wind
direction
speed
KPH
gust
KPH
rain 1hr
cm
rain 24hr
cm
rain mn
cm
humidity
%
barometer
mb
20260505014718 18 135 12.9 22.5 0.00 0.00 0.00 92 1015.8
20260505013218 18 90 12.9 22.5 0.00 0.00 0.00 93 1015.8
20260505011718 18 135 12.9 22.5 0.00 0.00 0.00 93 1015.7
20260505010217 18 135 16.1 25.7 0.00 0.00 0.00 91 1015.6
20260505004717 -17 0.0 0.0 0.00 0.00 0.00
20260505003218 18 90 17.7 30.6 0.00 0.00 0.00 91 1015.3
20260505001717 18 90 14.5 25.7 0.00 0.00 0.00 91 1015.3
20260505000219 18 90 17.7 30.6 0.00 0.00 0.00 90 1014.9
20260504234718 18 135 19.3 30.6 0.00 0.00 0.00 91 1014.7
20260504233218 18 90 16.1 33.8 0.00 0.00 0.00 92 1014.5
20260504231717 19 90 12.9 22.5 0.00 0.00 0.00 92 1014.7
20260504230218 19 90 14.5 29.0 0.00 0.00 0.00 92 1014.6
20260504224717 -17 0.0 0.0 0.00 0.00 0.00
20260504223218 19 90 16.1 25.7 0.00 0.00 0.00 93 1014.4
20260504221717 19 135 12.9 22.5 0.00 0.00 0.00 92 1014.3
20260504220217 20 135 17.7 29.0 0.00 0.00 0.00 86 1014.4
20260504214718 20 135 17.7 25.7 0.00 0.00 0.00 83 1014.3
20260504213219 20 90 16.1 29.0 0.00 0.00 0.00 84 1013.9
20260504211718 20 90 14.5 25.7 0.00 0.00 0.00 83 1014.0
20260504210218 20 90 12.9 25.7 0.00 0.00 0.00 83 1014.1
20260504204717 20 90 14.5 24.1 0.00 0.00 0.00 83 1014.1
20260504203217 20 90 16.1 25.7 0.00 0.00 0.00 83 1013.8
20260504201717 20 90 14.5 29.0 0.00 0.00 0.00 84 1013.9
20260504200218 20 90 16.1 22.5 0.00 0.00 0.00 84 1014.0
20260504194717 20 90 16.1 25.7 0.00 0.00 0.00 84 1013.8
20260504193218 21 90 12.9 25.7 0.00 0.00 0.00 85 1013.8
20260504191717 -17 0.0 0.0 0.00 0.00 0.00
20260504190217 21 90 14.5 24.1 0.00 0.00 0.00 84 1014.1
20260504184718 21 90 14.5 27.4 0.00 0.00 0.00 85 1014.2
20260504183219 21 90 14.5 25.7 0.00 0.00 0.00 87 1014.2
20260504181717 -17 0.0 0.0 0.00 0.00 0.00
20260504180219 -17 0.0 0.0 0.00 0.00 0.00
20260504174719 22 90 12.9 20.9 0.00 0.00 0.00 84 1014.8
20260504173217 -17 0.0 0.0 0.00 0.00 0.00
20260504171718 22 90 14.5 24.1 0.00 0.00 0.00 81 1015.1
20260504170218 22 90 22.5 38.6 0.00 0.00 0.00 80 1015.1
20260504160217 22 90 20.9 38.6 0.00 0.00 0.00 82 1015.6
20260504150218 21 90 17.7 27.4 0.00 0.00 0.00 87 1016.1
20260504140219 21 90 16.1 25.7 0.00 0.00 0.00 88 1015.7
20260504130217 -17 0.0 0.0 0.00 0.00 0.00
20260504120219 21 90 17.7 33.8 0.00 0.00 0.00 89 1014.8
20260504110218 22 90 12.9 32.2 0.00 0.00 0.00 87 1014.8
20260504100217 22 90 17.7 35.4 0.00 0.00 0.00 85 1014.0
20260504081717 23 45 9.7 20.9 0.00 0.00 0.00 72 1014.3
20260504080218 23 90 11.3 20.9 0.00 0.00 0.00 72 1014.7
20260504070218 23 90 16.1 29.0 0.00 0.00 0.00 69 1015.3
20260504060219 25 90 17.7 32.2 0.00 0.00 0.00 62 1015.3
20260504050218 25 90 9.7 27.4 0.00 0.00 0.00 64 1015.7
20260504044717 26 90 6.4 12.9 0.00 0.00 0.00 63 1015.7
20260504043219 25 135 6.4 12.9 0.00 0.00 0.00 66 1015.8
20260504041718 25 135 6.4 12.9 0.00 0.00 0.00 66 1015.8
20260504040218 24 90 4.8 16.1 0.00 0.00 0.00 68 1016.1
20260504034718 -17 0.0 0.0 0.00 0.00 0.00
20260504033219 -17 135 9.7 17.7 0.00 0.00 0.00 66 1016.0
20260504031718 -17 0 1.6 9.7 0.00 0.00 0.00 66 1016.1
20260504030218 -17 135 17.7 29.0 0.00 0.00 0.00 66 1016.3
20260504024717 -17 0.0 0.0 0.00 0.00 0.00
20260504023217 -17 90 17.7 25.7 0.00 0.00 0.00 69 1016.2
20260504021720 -17 0.0 0.0 0.00 0.00 0.00
20260504020230 -17 135 4.8 14.5 0.00 0.00 0.00 67 1016.1